EW8836 Weather Reports


time (UTC)temp
F
wind
direction
speed
knots
gust
knots
rain 1hr
in
rain 24hr
in
rain mn
in
humidity
%
barometer
mb
20260505093048 60 181 5.2 10.4 0.00 0.25 0.11 87 1008.4
20260505091607 58 255 4.3 9.6 0.00 0.25 0.11 87 1008.2
20260505090056 58 236 3.5 7.8 0.00 0.25 0.11 90 1008.2
20260505084548 58 238 3.5 10.4 0.00 0.26 0.11 91 1008.1
20260505081605 56 237 1.7 6.1 0.00 0.26 0.11 96 1008.1
20260505080052 54 242 1.7 6.1 0.00 0.26 0.11 96 1008.2
20260505074559 54 218 2.6 6.1 0.00 0.39 0.11 97 1008.3
20260505073112 53 201 3.5 11.3 0.00 0.39 0.11 98 1008.3
20260505071559 53 240 1.7 7.0 0.00 0.39 0.11 99 1008.2
20260505070058 53 271 1.7 6.1 0.01 0.39 0.11 99 1008.1
20260505064605 53 207 1.7 6.1 0.01 0.47 0.11 99 1008.0
20260505063052 53 215 1.7 7.0 0.01 0.47 0.11 99 1008.0
20260505061556 53 247 1.7 6.1 0.01 0.47 0.11 99 1008.0
20260505060104 53 205 1.7 6.1 0.00 0.46 0.10 99 1007.9
20260505054628 53 212 0.0 2.6 0.00 0.56 0.10 99 1007.8
20260505053114 53 254 0.0 0.9 0.01 0.56 0.10 99 1007.7
20260505051555 52 231 0.0 0.9 0.02 0.56 0.10 100 1007.7
20260505050105 52 198 0.0 0.0 0.02 0.56 0.10 99 1007.8
20260505041602 52 217 0.0 0.9 0.01 0.60 0.09 99 1007.7
20260505040055 52 125 0.0 0.0 0.01 0.60 0.09 99 1007.8
20260505034549 52 125 0.0 0.0 0.00 0.62 0.08 99 1007.9
20260505033051 52 125 0.0 0.0 0.00 0.62 0.08 99 1008.1
20260505031605 52 125 0.0 0.9 0.00 0.62 0.08 99 1008.1
20260505030053 52 122 0.0 0.0 0.00 0.62 0.08 99 1008.0
20260505024600 52 253 0.0 0.0 0.01 0.71 0.08 99 1008.1
20260505023108 52 255 0.0 0.0 0.01 0.71 0.08 99 1008.1
20260505021558 52 255 0.0 0.0 0.01 0.71 0.08 99 1008.2
20260505014543 52 255 0.0 0.9 0.00 0.77 0.07 99 1008.1
20260505013109 52 240 0.0 0.9 0.00 0.77 0.07 99 1008.0
20260505011546 52 168 0.0 0.0 0.00 0.77 0.07 99 1008.1
20260505010054 52 238 0.0 0.9 0.00 0.77 0.07 99 1008.2
20260505004556 52 233 0.0 1.7 0.00 0.87 0.07 99 1008.5
20260505003055 53 209 0.0 2.6 0.01 0.87 0.07 99 1008.8
20260505001551 53 243 0.0 2.6 0.02 0.87 0.07 99 1008.8
20260505000117 53 225 0.0 1.7 0.03 0.87 0.07 99 1008.9
20260504234600 53 245 0.9 4.3 0.06 0.89 0.07 99 1009.0
20260504233111 53 248 0.0 3.5 0.06 0.88 0.06 98 1009.1
20260504231605 53 210 0.9 5.2 0.06 0.87 0.06 98 1009.2
20260504230109 53 246 0.9 4.3 0.04 0.86 0.04 98 1009.3
20260504224558 53 228 1.7 4.3 0.02 0.86 0.02 98 1009.2
20260504223106 53 205 2.6 5.2 0.01 0.85 0.01 98 1009.2
20260504221608 53 264 0.9 5.2 0.01 0.84 0.00 98 1009.2
20260504220002 53 259 1.7 6.1 0.02 0.84 0.00 98 1009.3
20260504214547 53 231 2.6 6.1 0.02 0.85 0.84 98 1009.3
20260504213058 53 219 0.9 3.5 0.04 0.85 0.84 98 1009.6
20260504211621 53 219 0.0 2.6 0.06 0.84 0.83 98 1009.7
20260504210057 53 229 0.9 4.3 0.06 0.83 0.83 97 1009.9
20260504204549 53 230 0.0 2.6 0.06 0.83 0.82 97 1010.1
20260504203117 54 234 0.9 5.2 0.06 0.82 0.80 97 1010.4
20260504201553 54 247 0.9 6.1 0.06 0.80 0.78 96 1010.4
20260504200050 55 159 3.5 7.0 0.05 0.79 0.77 95 1010.2
20260504194549 55 214 6.1 10.4 0.04 0.83 0.76 95 1010.1
20260504193057 56 221 0.9 7.0 0.02 0.81 0.74 93 1009.0
20260504191553 56 173 1.7 7.0 0.00 0.80 0.72 92 1009.0
20260504190126 57 297 0.9 5.2 0.00 0.80 0.72 91 1008.8
20260504184553 58 314 0.0 5.2 0.00 0.80 0.72 92 1008.6
20260504183102 58 278 0.0 1.7 0.01 0.80 0.72 93 1008.6
20260504181557 58 309 0.0 1.7 0.02 0.80 0.72 94 1008.7
20260504180117 58 131 0.0 0.9 0.02 0.80 0.72 94 1008.7
20260504174554 58 354 0.0 0.9 0.02 0.89 0.72 94 1008.8
20260504173055 58 3 0.0 0.9 0.02 0.88 0.72 94 1008.9
20260504171551 58 233 0.0 4.3 0.01 0.87 0.71 92 1009.1
20260504140107 66 298 0.0 3.5 0.00 0.87 0.70 78 1009.8
20260504130112 62 286 0.0 0.9 0.00 0.87 0.70 85 1010.3
20260504100104 55 60 0.0 0.0 0.00 0.87 0.70 99 1011.8